Date,TemperatureHighF,TemperatureAvgF,TemperatureLowF,DewpointHighF,DewpointAvgF,DewpointLowF,HumidityHigh,HumidityAvg,HumidityLow,PressureMaxIn,PressureMinIn,WindSpeedMaxMPH,WindSpeedAvgMPH,GustSpeedMaxMPH,PrecipitationSumIn
2014-1-1,52,45,37,40,36,30,81,70,57,30.18,29.94,2,0,0,0.00
2014-1-2,51,47,36,49,42,29,91,85,74,29.94,29.49,6,1,0,0.43
2014-1-3,42,31,25,25,12,0,66,46,17,30.22,29.67,8,2,0,0.00
2014-1-4,40,34,25,26,17,10,65,50,41,30.27,30.01,6,2,0,0.00
2014-1-5,52,42,36,50,36,27,91,81,66,30.01,29.60,4,1,0,0.04
2014-1-6,57,40,18,54,25,-3,91,60,30,30.11,29.51,7,3,0,0.08
2014-1-7,31,20,12,9,1,-4,63,44,24,30.34,30.11,6,1,0,0.00
2014-1-8,49,30,16,12,5,-10,71,42,9,30.39,30.28,5,1,0,0.00
2014-1-9,56,42,30,40,20,8,78,41,30,30.33,30.16,5,1,0,0.01
2014-1-10,51,48,46,49,45,39,91,88,73,30.14,29.83,4,1,0,1.18
2014-1-11,67,60,51,64,57,44,91,90,77,29.83,29.48,5,2,0,0.36
2014-1-12,65,48,38,43,36,28,85,64,27,29.99,29.63,5,1,0,0.00
2014-1-13,65,48,35,48,38,31,90,70,32,29.98,29.66,4,0,0,0.08
2014-1-14,64,52,38,52,44,33,91,77,39,29.78,29.59,4,1,0,0.07
2014-1-15,64,45,32,38,31,20,90,62,28,29.79,29.63,5,1,0,0.00
2014-1-16,49,37,28,23,20,12,71,51,23,29.88,29.75,4,1,0,0.00
2014-1-17,58,43,30,34,24,9,68,49,19,29.87,29.68,6,2,0,0.00
2014-1-18,49,37,30,18,13,8,54,38,21,29.97,29.77,7,2,0,0.00
2014-1-19,62,45,33,29,23,14,71,43,23,29.86,29.77,6,1,0,0.00
2014-1-20,68,48,32,31,23,7,76,45,9,29.83,29.67,5,1,0,0.00
2014-1-21,65,45,34,38,27,14,77,52,22,29.66,29.39,9,2,0,0.00
2014-1-22,43,32,24,19,9,-4,58,40,15,29.92,29.66,5,2,0,0.00
2014-1-23,48,34,23,11,5,-1,57,30,13,30.20,29.93,4,1,0,0.00
2014-1-24,36,27,18,5,-8,-23,47,24,7,30.42,30.09,7,2,0,0.00
2014-1-25,52,34,17,15,8,0,69,37,16,30.10,29.57,8,2,0,0.00
2014-1-26,56,42,28,29,22,15,70,47,28,29.82,29.71,5,1,0,0.00
2014-1-27,69,52,42,43,37,28,77,59,31,29.77,29.63,5,1,0,0.00
2014-1-28,47,37,26,36,18,-2,83,51,18,30.01,29.77,6,2,0,0.05
2014-1-29,33,27,22,22,20,16,84,75,61,30.13,29.93,6,1,0,0.00
2014-1-30,39,27,17,16,12,6,81,57,26,30.17,30.00,7,1,0,0.05
2014-1-31,58,35,19,22,14,2,74,49,11,30.06,29.93,3,0,0,0.15
2014-2-1,48,42,31,43,33,21,89,71,41,29.99,29.90,4,1,0,0.02
2014-2-2,63,51,44,54,47,41,91,86,71,29.97,29.78,3,0,0,0.01
2014-2-3,68,62,53,61,57,50,91,86,77,29.90,29.72,4,2,0,0.00
2014-2-4,54,45,41,52,42,39,91,88,79,30.07,29.87,6,2,0,0.21
2014-2-5,65,51,40,57,43,30,91,75,44,29.89,29.68,7,2,0,0.17
2014-2-6,50,41,33,34,27,24,84,60,35,30.11,29.90,7,1,0,0.06
2014-2-7,55,42,31,35,31,28,91,69,37,30.13,30.01,4,0,0,0.00
2014-2-8,60,46,37,37,34,30,79,65,36,30.06,29.87,4,1,0,0.00
2014-2-9,65,48,36,45,37,32,90,68,35,29.97,29.79,5,1,0,0.00
2014-2-10,62,48,38,42,38,34,89,71,46,29.93,29.81,6,1,0,0.00
2014-2-11,43,36,33,36,33,29,89,87,74,30.10,29.92,7,3,0,0.55
2014-2-12,33,31,30,29,27,26,88,87,85,30.09,29.99,9,3,0,0.12
2014-2-17,64,56,50,41,33,27,73,45,26,29.99,29.92,3,1,0,0.00
2014-2-18,75,58,43,52,42,35,89,60,25,30.03,29.85,3,1,0,0.00
2014-2-19,82,66,56,56,52,48,90,64,32,29.88,29.77,7,2,0,0.00
2014-2-20,82,66,53,58,52,48,84,64,32,29.92,29.76,6,2,0,0.00
2014-2-21,68,60,41,61,48,21,90,67,18,29.84,29.66,5,2,0,0.28
2014-2-22,70,52,35,38,27,14,83,48,12,29.97,29.82,6,1,0,0.00
2014-2-23,65,54,40,49,43,35,89,69,43,29.90,29.73,4,0,0,0.00
2014-2-24,74,58,49,52,40,28,91,58,19,29.88,29.71,7,1,0,0.00
2014-2-25,71,57,44,45,40,23,89,56,19,29.85,29.70,5,1,0,0.00
2014-2-26,56,46,38,44,39,34,88,77,61,29.69,29.57,3,0,0,0.38
2014-2-27,61,42,29,35,23,6,90,55,11,29.74,29.61,7,1,0,0.00
2014-2-28,61,44,28,32,18,6,70,40,15,29.99,29.73,7,2,0,0.00
2014-3-1,68,50,40,37,32,28,70,53,24,30.11,29.94,5,1,0,0.00
2014-3-2,76,57,40,47,41,35,90,58,28,30.03,29.77,5,1,0,0.00
2014-3-3,66,54,35,58,45,29,82,74,65,29.94,29.62,9,3,0,0.00
2014-3-4,39,34,29,29,21,16,79,58,41,30.07,29.90,9,3,0,0.00
2014-3-5,56,42,34,39,32,19,82,69,49,29.99,29.87,6,1,0,0.07
2014-3-6,40,36,34,33,28,16,88,72,41,30.00,29.69,9,4,0,0.61
2014-3-7,46,40,36,41,37,33,90,88,81,29.83,29.63,7,2,0,0.25
2014-3-8,75,51,34,47,38,31,91,67,23,29.95,29.81,6,1,0,0.00
2014-3-9,78,59,42,45,41,37,89,57,24,29.92,29.79,5,1,0,0.00
2014-3-10,80,60,44,43,39,36,79,50,21,29.83,29.66,7,2,0,0.00
2014-3-11,84,64,45,50,44,39,80,54,23,29.69,29.50,6,1,0,0.00
2014-3-12,77,62,47,61,50,25,91,67,41,29.57,29.22,12,4,0,0.13
2014-3-13,62,46,36,26,18,8,61,34,12,30.01,29.57,7,2,0,0.00
2014-3-14,70,49,31,32,18,6,74,39,8,30.13,29.92,5,1,0,0.00
2014-3-15,79,60,48,40,37,30,71,46,18,29.93,29.78,6,1,0,0.00
2014-3-16,60,56,52,57,51,39,91,84,55,29.81,29.43,7,1,0,1.23
2014-3-17,59,45,36,56,42,34,91,90,88,29.66,29.44,7,2,0,0.24
2014-3-18,47,40,35,40,36,32,91,87,78,29.92,29.61,9,3,0,0.22
2014-3-19,69,50,41,47,42,38,91,78,44,29.98,29.82,4,1,0,0.00
2014-3-20,80,57,42,50,35,14,91,56,9,29.86,29.75,4,1,0,0.00
2014-3-21,77,57,40,33,22,4,65,31,6,29.97,29.83,5,1,0,0.00
2014-3-22,83,63,48,50,41,34,80,51,18,29.87,29.74,4,1,0,0.00
2014-3-23,77,59,49,54,47,39,90,66,39,29.89,29.67,9,2,0,0.00
2014-3-24,66,50,39,39,29,17,88,51,15,30.04,29.82,6,1,0,0.00
2014-3-25,59,47,38,41,27,10,77,49,17,29.87,29.60,10,2,0,0.02
2014-3-26,64,42,27,18,10,-6,66,34,6,30.12,29.88,5,1,0,0.00
2014-3-27,74,51,32,44,26,15,74,44,12,30.24,30.02,5,1,0,0.00
2014-3-28,62,56,49,59,52,43,91,85,71,30.04,29.80,3,0,0,0.53
2014-3-29,79,66,54,63,56,41,91,74,46,29.84,29.46,9,2,0,0.03
2014-3-30,75,56,44,40,29,10,67,43,9,29.85,29.59,8,3,0,0.00
2014-3-31,87,59,38,35,14,-30,82,36,1,29.95,29.84,7,1,0,0.00
2014-4-1,92,66,45,42,24,-22,73,33,1,29.95,29.83,5,1,0,0.00
2014-4-2,92,68,48,42,26,-23,71,32,1,29.94,29.82,6,1,0,0.00
2014-4-3,93,72,57,53,42,27,68,39,10,29.89,29.73,6,1,0,0.00
2014-4-4,88,71,54,59,52,47,82,54,30,29.78,29.62,6,2,0,0.00
2014-4-5,86,69,56,55,39,4,83,44,5,29.81,29.70,5,1,0,0.00
2014-4-6,63,59,54,46,40,32,64,49,38,29.89,29.77,8,1,0,0.00
2014-4-7,62,57,53,59,52,42,91,83,61,29.78,29.49,7,1,0,1.33
2014-4-8,73,62,53,62,49,41,91,68,35,29.50,29.41,5,2,0,0.02
2014-4-9,76,60,47,43,38,27,76,49,18,29.91,29.51,8,1,0,0.00
2014-4-10,84,61,42,42,32,19,81,43,10,30.07,29.91,5,1,0,0.00
2014-4-11,85,65,49,48,44,38,79,50,22,30.08,29.89,6,1,0,0.00
2014-4-12,91,69,51,54,46,38,90,53,16,30.02,29.89,4,1,0,0.00
2014-4-13,87,71,55,59,52,48,88,55,29,29.99,29.84,4,1,0,0.00
2014-4-14,88,72,62,65,57,52,91,64,32,29.86,29.59,4,1,0,1.36
2014-4-15,71,64,47,66,58,32,91,82,53,29.79,29.42,6,2,0,0.36
2014-4-16,68,49,36,30,24,16,68,42,13,30.14,29.80,8,2,0,0.00
2014-4-17,74,55,40,38,29,15,75,43,13,30.27,30.12,7,2,0,0.00
2014-4-18,58,54,51,49,45,38,90,73,51,30.14,29.81,8,2,0,1.33
2014-4-19,59,54,51,55,51,48,90,89,85,29.90,29.76,9,4,0,0.43
2014-4-20,74,60,49,49,43,37,90,60,26,29.99,29.88,7,2,0,0.08
2014-4-21,84,63,48,42,36,25,73,43,12,29.95,29.73,5,1,0,0.00
2014-4-22,85,64,50,61,51,40,91,67,29,29.73,29.54,7,1,0,0.09
2014-4-23,89,69,55,61,50,36,91,60,17,29.72,29.58,4,1,0,0.01
2014-4-24,90,69,54,56,39,30,76,38,13,29.86,29.70,5,1,0,0.00
2014-4-25,85,70,59,64,56,49,90,65,36,29.75,29.55,8,1,0,0.00
2014-4-26,92,70,53,52,40,18,82,44,7,29.83,29.67,5,1,0,0.00
2014-4-27,95,73,54,59,52,46,90,55,19,29.82,29.68,4,1,0,0.00
2014-4-28,89,76,64,67,61,57,89,62,37,29.75,29.59,6,1,0,0.00
2014-4-29,82,74,67,66,63,61,82,69,52,29.74,29.58,9,1,0,0.00
2014-4-30,81,72,67,69,63,59,87,73,52,29.82,29.65,4,1,0,0.12
2014-5-1,76,66,57,62,58,53,87,76,59,29.76,29.67,5,1,0,0.04
2014-5-2,76,61,54,54,49,41,91,69,31,29.77,29.66,3,0,0,0.00
2014-5-3,84,66,51,50,41,28,89,50,15,29.77,29.67,7,1,0,0.00
2014-5-4,96,71,52,50,44,30,81,46,11,29.85,29.71,6,1,0,0.00
2014-5-5,98,76,58,54,48,36,71,42,13,29.81,29.65,4,1,0,0.00
2014-5-6,97,77,60,58,51,41,80,46,15,29.78,29.67,6,1,0,0.00
2014-5-7,98,79,57,56,48,37,79,40,12,29.92,29.77,5,1,0,0.00
2014-5-8,99,78,60,64,54,43,84,50,17,30.02,29.89,4,1,0,0.00
2014-5-9,94,78,65,68,59,52,90,56,25,29.98,29.85,6,1,0,0.00
2014-5-10,87,76,68,66,63,56,82,65,49,29.89,29.78,4,1,0,0.00
2014-5-11,92,76,65,67,62,59,89,66,35,29.92,29.82,5,0,0,0.00
2014-5-12,99,79,64,68,62,57,91,61,25,30.00,29.87,3,0,0,0.00
2014-5-13,99,79,66,67,60,54,89,56,24,29.97,29.85,3,1,0,0.00
2014-5-14,95,78,64,69,61,54,91,62,27,29.95,29.76,4,1,0,0.00
2014-5-15,74,69,58,68,65,54,90,87,74,29.80,29.62,4,1,0,2.47
2014-5-16,80,63,49,54,43,35,88,55,22,29.90,29.69,5,1,0,0.00
2014-5-17,85,64,46,47,39,29,89,48,13,29.99,29.89,5,1,0,0.00
2014-5-18,76,62,57,55,50,45,82,66,44,30.03,29.95,4,1,0,0.00
2014-5-19,88,66,52,54,48,41,90,60,20,30.07,29.97,4,1,0,0.00
2014-5-20,91,72,53,56,52,47,89,54,26,30.09,29.92,4,1,0,0.00
2014-5-21,97,76,59,59,52,45,73,47,19,29.95,29.81,6,1,0,0.00
2014-5-22,100,80,65,60,56,51,70,48,22,29.85,29.70,7,1,0,0.00
2014-5-23,103,83,68,65,60,51,78,51,19,29.82,29.71,5,1,0,0.00
2014-5-24,94,79,68,61,53,43,73,45,19,29.91,29.77,5,1,0,0.00
2014-5-25,92,75,68,66,60,54,76,61,32,29.98,29.85,4,0,0,0.20
2014-5-26,96,77,62,65,60,56,90,61,28,30.03,29.89,4,1,0,0.00
2014-5-27,92,77,68,69,65,61,90,70,42,29.96,29.77,4,1,0,0.01
2014-5-28,96,77,67,70,64,61,87,68,34,29.85,29.75,4,0,0,0.00
2014-5-29,98,79,65,68,63,58,90,64,29,29.85,29.73,4,1,0,0.62
2014-5-30,90,77,68,70,67,65,91,73,47,29.88,29.77,5,1,0,0.09
2014-5-31,89,75,68,70,66,64,91,75,50,29.91,29.81,4,0,0,0.00
2014-6-1,92,75,65,64,56,47,84,55,23,30.04,29.91,7,1,0,0.00
2014-6-2,90,73,56,60,52,49,81,53,27,30.05,29.90,4,1,0,0.00
2014-6-3,92,78,68,64,61,58,77,58,32,29.94,29.75,4,1,0,0.00
2014-6-4,100,82,66,68,64,61,90,60,29,29.79,29.60,4,1,0,0.00
2014-6-5,101,83,71,69,65,60,82,57,29,29.67,29.55,4,1,0,0.00
2014-6-6,98,80,70,68,65,62,81,62,33,29.71,29.60,4,1,0,0.00
2014-6-7,95,76,69,72,68,65,91,77,44,29.73,29.62,5,0,0,0.77
2014-6-8,93,80,71,74,69,63,91,71,39,29.74,29.59,4,1,0,0.00
2014-6-9,99,83,70,71,68,63,91,65,34,29.72,29.61,5,0,0,0.00
2014-6-10,102,85,72,72,66,60,90,58,29,29.75,29.64,5,1,0,0.09
2014-6-11,96,74,67,71,66,63,91,78,38,29.79,29.62,4,1,0,1.46
2014-6-12,91,76,69,71,67,60,91,77,43,29.72,29.59,3,0,0,0.08
2014-6-13,92,76,66,72,66,62,91,72,40,29.69,29.61,4,1,0,0.01
2014-6-14,96,80,68,68,64,60,90,62,33,29.79,29.68,5,1,0,0.00
2014-6-15,100,83,68,72,64,59,91,59,26,29.91,29.78,3,1,0,0.00
2014-6-16,104,84,71,74,65,57,91,58,23,29.97,29.85,3,0,0,0.00
2014-6-17,103,84,70,71,64,59,90,56,26,29.98,29.85,3,1,0,0.00
2014-6-18,103,82,67,70,62,58,89,55,24,29.95,29.85,3,1,0,0.00
2014-6-19,104,84,69,70,64,59,89,55,25,29.93,29.79,4,1,0,0.00
2014-6-20,107,86,71,71,63,56,87,52,21,29.85,29.68,4,1,0,0.00
2014-6-21,105,86,70,69,63,55,81,53,21,29.71,29.55,5,1,0,0.00
2014-6-22,100,84,70,67,62,55,82,53,26,29.69,29.57,4,1,0,0.00
2014-6-23,102,81,71,69,65,58,82,62,27,29.87,29.68,4,1,0,0.00
2014-6-24,98,81,72,69,67,64,90,65,34,29.89,29.75,4,1,0,0.72
2014-6-25,97,82,71,73,68,62,91,67,34,29.85,29.69,4,1,0,0.00
2014-6-26,102,84,71,68,64,55,82,55,25,29.82,29.68,5,1,0,0.00
2014-6-27,97,81,70,67,65,62,77,60,32,29.82,29.72,4,1,0,0.00
2014-6-28,97,82,72,69,66,61,89,62,31,29.92,29.81,5,1,0,0.30
2014-6-29,94,80,71,72,69,65,91,72,39,29.97,29.83,5,1,0,0.00
2014-6-30,98,81,71,73,68,62,90,66,35,29.87,29.69,3,1,0,0.00
2014-7-1,102,85,72,73,68,63,91,62,30,29.76,29.63,5,1,0,0.00
2014-7-2,105,87,74,71,67,64,77,53,27,29.72,29.65,4,1,0,0.00
2014-7-3,101,84,74,71,66,62,78,57,32,29.72,29.60,4,1,0,0.00
2014-7-4,96,80,66,64,59,51,84,52,23,29.87,29.70,5,1,0,0.00
2014-7-5,98,80,69,62,55,48,69,45,22,29.97,29.87,6,2,0,0.00
2014-7-6,96,80,69,66,63,57,77,58,28,29.91,29.78,4,1,0,0.00
2014-7-7,95,81,70,72,66,62,91,65,40,29.86,29.73,5,1,0,0.00
2014-7-8,102,84,70,66,60,51,76,49,19,29.88,29.72,5,1,0,0.00
2014-7-9,104,83,71,67,60,51,79,51,18,29.84,29.71,8,1,0,0.01
2014-7-10,97,82,70,69,65,60,86,61,29,29.88,29.75,4,1,0,0.02
2014-7-11,91,79,72,73,69,67,91,73,47,29.97,29.86,3,0,0,0.00
2014-7-12,99,82,70,73,66,57,91,63,28,30.00,29.88,4,0,0,0.00
2014-7-13,98,83,70,72,65,59,91,61,29,29.95,29.77,5,1,0,0.00
2014-7-14,103,84,73,73,67,57,90,62,23,29.85,29.68,4,1,0,0.00
2014-7-15,102,80,74,71,68,62,87,69,27,29.73,29.57,4,1,0,0.41
2014-7-16,94,80,72,70,63,53,89,61,27,29.68,29.58,4,1,0,0.01
2014-7-17,96,80,68,66,60,55,87,54,26,29.81,29.68,3,1,0,0.00
2014-7-18,97,81,69,71,60,52,91,55,22,29.90,29.79,4,1,0,0.00
2014-7-19,85,75,70,70,67,60,91,77,58,29.87,29.79,5,0,0,0.48
2014-7-20,89,77,72,73,70,69,91,81,52,29.83,29.77,3,0,0,0.05
2014-7-21,95,79,72,76,70,66,91,79,39,29.91,29.78,6,0,0,1.09
2014-7-22,97,78,71,74,70,67,91,78,40,29.91,29.80,7,1,0,0.20
2014-7-23,97,82,72,74,69,66,91,69,36,29.88,29.73,4,1,0,0.00
2014-7-24,96,83,73,74,69,65,91,65,38,29.76,29.64,5,1,0,0.00
2014-7-25,97,82,72,72,69,64,91,68,34,29.82,29.69,4,1,0,0.14
2014-7-26,103,82,71,75,67,58,91,66,27,29.82,29.72,4,1,0,0.01
2014-7-27,102,84,71,70,67,63,85,60,31,29.79,29.65,6,1,0,0.00
2014-7-28,101,87,77,72,64,51,73,51,22,29.68,29.55,7,2,0,0.00
2014-7-29,95,79,67,60,54,48,67,45,20,29.75,29.65,4,1,0,0.00
2014-7-30,94,80,71,63,60,57,66,53,30,29.81,29.73,3,0,0,0.00
2014-7-31,87,75,71,69,66,62,80,73,51,29.85,29.78,5,1,0,0.05
2014-8-1,90,74,69,68,65,63,91,75,46,29.85,29.75,4,2,0,0.00
2014-8-2,77,71,69,70,66,63,91,85,74,29.88,29.80,4,1,0,0.58
2014-8-3,91,78,69,70,67,65,91,72,43,29.86,29.74,4,1,0,0.00
2014-8-4,91,78,70,71,67,63,91,71,41,29.83,29.73,6,1,0,0.00
2014-8-5,98,80,70,73,65,57,91,65,27,29.83,29.72,7,1,0,0.00
2014-8-6,99,81,66,68,61,52,91,58,22,29.78,29.68,5,1,0,0.00
2014-8-7,102,84,70,68,61,53,81,51,20,29.78,29.67,5,1,0,0.00
2014-8-8,99,81,71,70,65,59,91,62,34,29.86,29.74,5,1,0,0.94
2014-8-9,90,78,71,75,71,68,91,79,55,29.85,29.73,3,0,0,0.11
2014-8-10,92,78,73,75,72,70,91,83,49,29.85,29.74,3,0,0,0.77
2014-8-11,94,80,73,74,70,68,91,76,45,29.81,29.66,2,0,0,0.00
2014-8-12,98,80,73,76,71,67,91,75,37,29.72,29.56,5,1,0,0.01
2014-8-13,96,80,70,71,62,43,91,61,19,29.76,29.63,5,1,0,0.00
2014-8-14,95,77,67,61,57,51,71,52,26,29.83,29.72,5,1,0,0.00
2014-8-15,94,79,68,73,65,58,91,67,32,29.82,29.69,4,0,0,0.05
2014-8-16,96,81,70,72,64,53,91,62,24,29.83,29.74,4,1,0,0.00
2014-8-17,100,81,68,67,62,57,86,56,25,29.82,29.71,4,1,0,0.00
2014-8-18,97,81,72,74,69,66,91,70,39,29.76,29.60,5,1,0,0.22
2014-8-19,96,80,70,72,68,63,91,71,36,29.70,29.60,5,1,0,0.01
2014-8-20,102,82,71,72,66,57,91,63,24,29.85,29.69,4,1,0,0.00
2014-8-21,104,85,72,68,62,52,80,53,18,29.89,29.78,6,1,0,0.00
2014-8-22,104,86,72,70,64,56,85,53,23,29.86,29.71,5,1,0,0.00
2014-8-23,102,86,73,71,65,54,90,54,20,29.75,29.60,5,1,0,0.00
2014-8-24,89,81,74,69,65,59,78,59,40,29.82,29.65,8,2,0,0.00
2014-8-25,92,76,66,60,52,42,72,47,18,29.85,29.76,9,2,0,0.00
2014-8-26,93,78,67,61,57,52,78,52,27,29.89,29.77,6,2,0,0.00
2014-8-27,97,78,63,59,50,32,78,44,10,29.87,29.73,7,2,0,0.00
2014-8-28,101,79,63,60,50,28,81,44,9,29.83,29.71,4,1,0,0.00
2014-8-29,102,82,67,69,57,41,91,50,13,29.90,29.78,4,1,0,0.00
2014-8-30,99,83,71,74,66,61,89,59,30,29.95,29.81,3,0,0,0.00
2014-8-31,99,81,74,72,68,64,91,70,32,29.93,29.80,3,1,0,0.91
2014-9-1,100,82,71,74,69,59,91,69,28,29.90,29.77,3,0,0,0.04
2014-9-2,99,79,72,75,70,64,91,77,35,29.88,29.74,5,1,0,0.26
2014-9-3,98,80,70,74,68,64,91,70,33,29.89,29.72,5,1,0,0.01
2014-9-4,96,81,72,75,68,60,91,69,32,29.94,29.83,4,0,0,1.64
2014-9-5,96,81,71,74,68,63,91,67,38,29.98,29.81,5,1,0,0.00
2014-9-6,97,80,73,74,70,65,91,72,36,29.84,29.69,4,0,0,0.00
2014-9-7,91,79,72,75,70,67,91,76,47,29.80,29.68,4,1,0,0.00
2014-9-8,86,76,72,74,69,65,91,80,60,29.87,29.75,6,1,0,0.00
2014-9-9,86,75,67,68,65,63,90,73,53,29.92,29.80,4,1,0,0.00
2014-9-10,91,77,68,68,65,62,91,69,39,29.91,29.79,4,0,0,0.00
2014-9-11,97,82,71,75,69,63,91,69,35,29.85,29.71,3,0,0,0.00
2014-9-12,95,80,73,74,70,67,91,72,41,29.84,29.74,6,0,0,0.00
2014-9-13,93,78,71,76,71,68,91,80,48,29.91,29.76,4,0,0,0.48
2014-9-14,74,72,69,71,69,67,91,90,88,30.00,29.88,5,1,0,0.61
2014-9-15,77,72,67,73,68,65,91,90,86,29.98,29.89,3,0,0,0.27
2014-9-16,94,78,69,73,70,64,91,78,38,29.91,29.67,5,0,0,2.30
2014-9-17,87,72,66,75,68,64,91,85,58,29.75,29.63,4,0,0,0.93
2014-9-18,88,73,66,71,65,63,91,79,47,29.78,29.67,4,0,0,0.01
2014-9-19,84,72,68,69,66,63,91,82,59,29.92,29.77,7,1,0,0.02
2014-9-20,86,72,64,65,60,53,91,70,33,29.92,29.75,6,2,0,0.00
2014-9-21,94,73,60,63,59,56,91,66,31,29.79,29.67,7,1,0,0.00
2014-9-22,73,69,64,64,61,57,91,77,61,29.90,29.71,4,0,0,0.27
2014-9-23,75,66,58,62,59,50,91,77,61,30.02,29.84,8,2,0,0.00
2014-9-24,67,60,55,59,54,49,91,81,64,30.04,29.97,6,3,0,0.15
2014-9-25,73,66,62,66,63,59,91,89,79,29.99,29.90,4,1,0,0.01
2014-9-26,72,68,65,65,64,62,91,86,75,29.96,29.88,5,2,0,0.00
2014-9-27,82,72,66,63,60,56,88,68,45,29.95,29.87,6,2,0,0.00
2014-9-28,82,73,66,63,61,58,82,67,50,29.94,29.81,5,1,0,0.00
2014-9-29,75,70,68,69,64,60,91,80,70,29.82,29.69,4,1,0,0.13
2014-9-30,86,71,62,63,60,55,91,71,38,29.73,29.62,4,1,0,0.00
2014-10-1,90,72,60,66,59,51,91,69,29,29.81,29.68,3,0,0,0.00
2014-10-2,90,73,61,65,59,53,91,67,31,29.90,29.79,4,0,0,0.00
2014-10-3,82,72,63,74,67,58,91,85,68,29.85,29.59,4,1,0,0.43
2014-10-4,73,65,51,68,44,18,91,55,14,29.73,29.57,9,2,0,0.01
2014-10-5,75,55,41,44,33,16,91,52,12,29.85,29.71,4,1,0,0.00
2014-10-6,82,61,45,48,41,34,88,54,20,29.92,29.81,4,0,0,0.00
2014-10-7,84,68,55,58,53,48,91,61,34,29.93,29.79,6,1,0,0.00
2014-10-8,90,73,60,67,59,53,91,65,29,29.89,29.77,4,1,0,0.00
2014-10-9,88,73,62,63,57,48,91,63,26,29.94,29.83,4,0,0,0.00
2014-10-10,90,75,62,68,61,50,87,62,39,29.90,29.78,4,0,0,0.00
2014-10-11,91,77,69,71,64,57,91,68,34,29.85,29.73,6,1,0,0.00
2014-10-12,88,73,67,68,64,61,91,75,45,29.95,29.78,7,1,0,0.00
2014-10-13,86,74,68,71,66,61,91,76,47,29.97,29.83,6,1,0,0.00
2014-10-14,80,73,69,72,69,66,91,88,69,29.84,29.57,6,1,0,0.33
2014-10-15,75,65,57,66,54,44,91,70,34,29.70,29.61,5,1,0,0.10
2014-10-16,70,61,53,52,49,47,85,67,47,29.71,29.59,5,1,0,0.00
2014-10-17,82,61,48,54,48,42,91,67,27,29.78,29.65,3,1,0,0.00
2014-10-18,83,66,54,59,48,42,91,59,24,29.75,29.58,5,1,0,0.00
2014-10-19,74,59,49,47,42,38,76,54,28,29.93,29.75,6,1,0,0.00
2014-10-20,77,59,45,53,45,43,91,66,33,29.93,29.76,5,0,0,0.00
2014-10-21,81,62,50,55,46,34,91,62,18,29.78,29.65,4,1,0,0.00
2014-10-22,70,57,46,44,37,32,71,51,24,29.89,29.75,5,1,0,0.00
2014-10-23,73,56,43,41,36,30,75,51,21,29.91,29.78,4,1,0,0.00
2014-10-24,76,58,48,46,42,35,89,58,24,29.88,29.76,4,0,0,0.00
2014-10-25,79,58,44,49,40,24,91,60,15,29.84,29.74,5,0,0,0.00
2014-10-26,89,64,48,56,45,30,91,59,13,29.78,29.68,5,1,0,0.00
2014-10-27,89,67,51,54,48,42,91,59,20,29.89,29.76,3,0,0,0.00
2014-10-28,87,68,56,63,53,47,91,64,26,29.93,29.83,3,0,0,0.00
2014-10-29,83,67,58,62,57,51,86,71,39,29.86,29.71,4,1,0,0.00
2014-10-30,75,62,51,60,43,33,82,55,23,29.81,29.70,7,1,0,0.00
2014-10-31,73,58,47,46,40,36,82,54,29,29.72,29.55,4,0,0,0.00
2014-11-1,54,44,35,44,35,29,91,70,47,29.91,29.53,14,3,0,0.59
2014-11-2,61,44,31,33,26,12,91,56,16,30.15,29.91,8,1,0,0.00
2014-11-3,68,47,33,31,22,2,79,46,8,30.28,30.14,5,0,0,0.00
2014-11-4,73,52,38,40,31,11,81,51,10,30.21,30.05,3,0,0,0.00
2014-11-5,78,60,49,57,51,40,91,73,40,30.11,29.97,3,0,0,0.00
2014-11-6,78,64,57,63,54,30,91,72,35,29.97,29.64,6,1,0,0.00
2014-11-7,68,50,38,36,31,24,79,51,19,29.86,29.71,5,1,0,0.00
2014-11-8,64,48,37,43,37,32,91,68,31,29.85,29.73,2,0,0,0.00
2014-11-9,71,53,44,45,39,29,88,63,23,29.80,29.69,3,0,0,0.00
2014-11-10,73,54,42,47,40,33,91,64,25,29.88,29.78,5,1,0,0.00
2014-11-11,78,60,48,51,45,38,84,59,37,29.81,29.69,4,1,0,0.00
2014-11-12,79,60,45,57,51,42,91,74,41,29.81,29.73,5,0,0,0.00
2014-11-13,62,54,45,54,44,32,91,69,52,29.84,29.74,4,1,0,0.00
2014-11-14,46,41,33,36,31,23,76,67,57,30.07,29.79,11,1,0,0.00
2014-11-15,52,38,29,23,15,9,62,42,17,30.23,30.06,6,2,0,0.00
2014-11-16,56,46,35,36,27,17,66,47,38,30.12,29.82,4,1,0,0.00
2014-11-17,68,53,36,65,48,29,91,84,66,29.83,29.48,6,2,0,0.56
2014-11-18,41,33,27,28,16,7,75,52,26,30.14,29.81,5,2,0,0.00
2014-11-19,52,34,20,20,10,-5,77,44,9,30.24,30.08,4,1,0,0.00
2014-11-20,66,43,27,33,24,16,74,52,23,30.09,29.92,6,1,0,0.00
2014-11-21,71,49,34,37,25,9,91,48,9,30.25,30.03,5,1,0,0.00
2014-11-22,68,50,35,41,18,8,70,33,10,30.31,30.03,5,1,0,0.00
2014-11-23,67,58,50,64,55,42,91,90,74,30.03,29.54,7,2,0,1.86
2014-11-24,72,66,62,69,63,59,91,90,84,29.72,29.55,4,1,0,0.09
2014-11-25,62,57,49,60,54,47,91,89,73,29.86,29.71,4,0,0,0.22